Location: Newark
(53.2933°N, 6.3959°W)
Time: 01:12:17
(UTC+00:00)

ISS - Visible Passes

Search period start: 28 February 2020 00:00
Search period end: 09 March 2020 00:00
Orbit: 415 x 423 km, 51.6° (Epoch: 28 February)

Date Brightness Start Highest point End Pass type
(mag) Time Alt. Az. Time Alt. Az. Time Alt. Az.
28 Feb -0.7 04:13:40 11° ESE 04:13:40 11° ESE 04:14:07 10° ESE visible
28 Feb -2.8 05:46:37 21° SW 05:48:31 42° SSE 05:51:45 10° E visible
29 Feb -2.6 05:00:53 33° SSE 05:00:59 33° SSE 05:04:04 10° E visible
29 Feb -3.5 06:34:09 10° WSW 06:37:31 65° S 06:40:53 10° E visible
01 Mar -1.1 04:15:06 17° ESE 04:15:06 17° ESE 04:16:18 10° E visible
01 Mar -3.5 05:48:03 24° WSW 05:49:54 60° S 05:53:15 10° E visible
02 Mar -3.4 05:02:13 51° S 05:02:17 51° SSE 05:05:35 10° E visible
02 Mar -3.5 06:35:34 10° W 06:38:56 65° S 06:42:17 10° ESE visible
03 Mar -1.5 04:16:21 23° ESE 04:16:21 23° ESE 04:17:54 10° E visible
03 Mar -3.6 05:49:17 22° WSW 05:51:17 67° S 05:54:39 10° E visible
04 Mar -3.8 05:03:24 63° SSW 05:03:38 65° S 05:06:59 10° E visible
05 Mar -1.9 04:17:30 28° E 04:17:30 28° E 04:19:18 10° E visible
05 Mar -3.5 05:50:27 20° W 05:52:38 59° S 05:55:58 10° ESE visible
06 Mar -3.8 05:04:33 58° SW 05:04:57 65° S 05:08:19 10° ESE visible
07 Mar -2.1 04:18:40 31° ESE 04:18:40 31° ESE 04:20:38 10° E visible
07 Mar -3.1 05:51:37 17° W 05:53:52 41° SSW 05:57:04 10° SE visible
08 Mar -0.4 03:32:50 11° E 03:32:50 11° E 03:32:55 10° E visible
08 Mar -3.5 05:05:46 47° SW 05:06:13 51° SSW 05:09:30 10° ESE visible
